Regional Weather Roundup
Issued by NWS

Home | Current Version | Previous Version | Graphics & Text | Print | Product List | Glossary On
Versions: 1 2 3 4 5 6 7 8 9 10 11 12 13 14 15 16 17 18 19 20 21 22 23 24 25 26 27 28 29 30 31 32 33 34 35 36 37 38 39 40 41 42 43 44 45 46 47 48 49 50
692
ASUS45 KABQ 251710
RWRNM
NEW MEXICO REGIONAL WEATHER ROUNDUP
NATIONAL WEATHER SERVICE ALBUQUERQUE NM
1100 AM MDT SAT MAR 25 2017

NOTE: "FAIR" MEANS FEW OR NO CLOUDS BELOW 12,000 FEET AGL WITH NO
       SIGNIFICANT WEATHER OR OBSTRUCTIONS TO VISION.

      THIS PRODUCT IS RELEASED AS TWO VERSIONS.  ONE VERSION NEAR
      THE TOP OF THE HOUR CONTAINING PRELIMINARY DATA FROM ALBUQUERQUE
      AND OTHER STATIONS.  A FINAL VERSION WITH ADDITIONAL DATA IS
      ISSUED ABOUT 10 MINUTES AFTER THE HOUR.

NMZ501-503-504-510>518-251800-
NORTHWEST PLATEAU/NORTHCENTRAL MOUNTAINS

CITY           SKY/WX    TMP DP  RH WIND       PRES   REMARKS
FARMINGTON     FAIR      53  27  36 VRB6      30.08F
LOS ALAMOS     FAIR      49  28  44 SE3       30.15F
SANTA FE       FAIR      56  28  34 N8        30.12F
TAOS             N/A     48  27  43 CALM      30.16F
ANGEL FIRE     FAIR      32  28  86 NE5       30.18F WCI  27

$$
NMZ402-403-502-505>509-251800-
WESTCENTRAL MOUNTAINS/SOUTHWEST MOUNTAINS

CITY           SKY/WX    TMP DP  RH WIND       PRES   REMARKS
GALLUP         FAIR      52  30  43 SW7       30.12F
GRANTS         FAIR      54  23  29 SE12      30.14F
SILVER CITY    FAIR      60  26  27 S6        30.16F

$$
NMZ407-409-411-412-251800-
SOUTHERN DESERTS

CITY           SKY/WX    TMP DP  RH WIND       PRES   REMARKS
DEMING         FAIR      63  28  26 VRB5      30.13S
LAS CRUCES     FAIR      62  26  25 SE9       30.14F
HOLLOMAN AFB   FAIR      62  27  26 S13       30.17F
ALAMOGORDO     FAIR      63  28  27 S6        30.15S
T OR C         FAIR      62  25  24 E5        30.12F

$$
NMZ519>523-251800-
CENTRAL VALLEYS/CENTRAL HIGHLANDS

CITY           SKY/WX    TMP DP  RH WIND       PRES   REMARKS
ALBUQUERQUE    PTSUNNY   54  24  31 VRB3      30.13F
DOUBLE EAGLE   PTSUNNY   54  25  32 VRB5      30.15F
MORIARTY ARPT  FAIR      63  21  20 W7        30.14F
CLINES CORNERS FAIR      56  20  24 W17G25    30.14S
BELEN          FAIR      57  24  28 SE5       30.14F
SOCORRO        FAIR      60  26  27 SE6       30.13F

$$
NMZ524>526-539-540-251800-
SOUTHCENTRAL MOUNTAINS

CITY           SKY/WX    TMP DP  RH WIND       PRES   REMARKS
RUIDOSO        FAIR      57  19  23 NE3       30.19F

$$
NMZ527>531-251800-
NORTHEAST HIGHLANDS/NORTHEAST PLAINS

CITY           SKY/WX    TMP DP  RH WIND       PRES   REMARKS
LAS VEGAS      FAIR      54  25  32 VRB3      30.11F
RATON          FAIR      47  30  51 VRB3      30.10F
CLAYTON        FAIR      59  29  31 VRB3      30.08F

$$
NMZ532>537-251800-
EASTCENTRAL PLAINS

CITY           SKY/WX    TMP DP  RH WIND       PRES   REMARKS
TUCUMCARI      FAIR      60  30  32 SE8       30.08F
CANNON AFB     FAIR      57  29  34 SW8       30.12F
CLOVIS AIRPORT FAIR      55  30  38 SW6       30.12F

$$
NMZ028-029-538-251800-
SOUTHEAST PLAINS

CITY           SKY/WX    TMP DP  RH WIND       PRES   REMARKS
ROSWELL        FAIR      62  28  27 S18         N/A
ARTESIA        FAIR      63  32  31 S16G22    30.13F
CARLSBAD       FAIR      62  31  31 S16       30.12F
HOBBS          SUNNY     59  28  31 CALM      30.16F


$$




USA.gov is the U.S. government's official web portal to all federal, state and local government web resources and services.